Language: 


Des rapports , des résumés tant et plus, au choix de chacun....


Données Historiques de Météogheer
Journalier Rapport pour Janvier 21, 2018 Unitée:  Impériale    Métrique   Les deux
Suivant Jour »
Journalier Hebdomadaire Mensuel Annuel Sur mesure
  Max: Min: Moyenne:
Température: 40.5 °F 34.2 °F 37 °F
Point de rosée: 41 °F 33.8 °F 37.2 °F
Humidité: 98% 94% 98%
Vent: 13mph 0mph 3.5mph
Rafales: 17.4mph - -
Vent- - SSW
Pression: 30 in 29.7 in -
Pluie: 0.6 in    
Historical Graphs
 
 
Données tabulaires pour Janvier 21, 2018
Heure Température Point de rosée Pression Vent Vent Rafales Humidité Pluie Taux (Horaire) Conditions
00:03 37.9 °F 37.4 °F 29.7 in Calm     98% 0 in
00:08 37.9 °F 37.4 °F 29.7 in Calm   1.3 mph 98% 0 in
00:13 37.9 °F 37.4 °F 29.7 in Calm   1.3 mph 98% 0 in
00:18 37.9 °F 37.4 °F 29.7 in Calm     98% 0 in
00:23 37.9 °F 37.4 °F 29.7 in Calm   1.3 mph 98% 0 in
00:28 37.9 °F 37.4 °F 29.7 in Calm   1.3 mph 98% 0 in
00:33 38.1 °F 37.4 °F 29.7 in Calm     98% 0 in
00:38 38.1 °F 37.4 °F 29.7 in NW 2.7 mph 2.7 mph 98% 0 in
00:43 38.1 °F 37.4 °F 29.7 in West 1.1 mph 2.7 mph 98% 0 in
00:48 38.3 °F 39.2 °F 29.7 in WNW 1.6 mph 3.6 mph 98% 0 in
00:53 38.5 °F 39.2 °F 29.7 in NNW 3.1 mph 3.6 mph 98% 0 in
00:58 38.7 °F 39.2 °F 29.7 in Calm   3.1 mph 98% 0 in
01:03 38.8 °F 39.2 °F 29.8 in North 4 mph 5.4 mph 98% 0.01 in
01:08 38.8 °F 39.2 °F 29.8 in WNW 1.6 mph 5.4 mph 98% 0.01 in
01:13 38.8 °F 39.2 °F 29.8 in Calm   4 mph 98% 0.01 in
01:18 38.8 °F 39.2 °F 29.8 in Calm   3.8 mph 98% 0.01 in
01:23 39 °F 39.2 °F 29.8 in Calm   2.5 mph 98% 0.01 in
01:28 38.8 °F 39.2 °F 29.8 in West 0.9 mph 1.1 mph 98% 0.01 in
01:33 38.8 °F 39.2 °F 29.8 in Calm   1.6 mph 98% 0.01 in
01:38 38.8 °F 39.2 °F 29.8 in Calm   1.6 mph 98% 0.01 in
01:43 38.8 °F 39.2 °F 29.8 in NW 1.3 mph 3.1 mph 98% 0.01 in
01:48 38.7 °F 39.2 °F 29.8 in Calm   3.4 mph 98% 0.01 in
01:53 38.5 °F 39.2 °F 29.8 in NW 1.1 mph 4.3 mph 98% 0.01 in
01:58 38.5 °F 39.2 °F 29.8 in Calm   4.3 mph 98% 0.01 in
02:03 38.3 °F 39.2 °F 29.8 in Calm   3.4 mph 98% 0 in
02:08 38.3 °F 39.2 °F 29.8 in NNW 3.8 mph 4.3 mph 98% 0 in
02:13 38.3 °F 39.2 °F 29.8 in Calm   4.7 mph 98% 0 in
02:18 38.1 °F 37.4 °F 29.8 in NW 0.9 mph 4.7 mph 98% 0 in
02:23 37.9 °F 37.4 °F 29.8 in Calm   3.8 mph 98% 0 in
02:28 37.9 °F 37.4 °F 29.8 in NW 2.7 mph 4 mph 98% 0 in
02:33 37.9 °F 37.4 °F 29.8 in Calm   4 mph 98% 0 in
02:38 37.6 °F 37.4 °F 29.8 in Calm   3.4 mph 98% 0 in
02:43 37.6 °F 37.4 °F 29.8 in Calm   2.7 mph 98% 0 in
02:48 37.4 °F 37.4 °F 29.8 in WNW 2 mph 3.4 mph 98% 0 in
02:53 37.2 °F 37.4 °F 29.8 in Calm   3.4 mph 98% 0 in
02:58 37 °F 37.4 °F 29.8 in Calm   2.7 mph 98% 0 in
03:03 37 °F 37.4 °F 29.8 in West 2.5 mph 3.8 mph 98% 0 in
03:08 37 °F 37.4 °F 29.8 in West 2.9 mph 4 mph 98% 0 in
03:13 36.9 °F 37.4 °F 29.9 in Calm   4 mph 98% 0 in
03:18 36.7 °F 37.4 °F 29.9 in Calm   3.8 mph 98% 0 in
03:23 36.7 °F 37.4 °F 29.9 in West 3.1 mph 3.8 mph 98% 0 in
03:28 36.7 °F 37.4 °F 29.9 in Calm   3.1 mph 98% 0 in
03:33 36.5 °F 37.4 °F 29.9 in Calm   3.1 mph 98% 0 in
03:39 36.3 °F 37.4 °F 29.9 in Calm   2.7 mph 98% 0 in
03:44 36.1 °F 37.4 °F 29.8 in Calm   4 mph 98% 0 in
03:49 36 °F 35.6 °F 29.8 in West 3.4 mph 4 mph 98% 0 in
03:54 35.8 °F 35.6 °F 29.8 in West 0.9 mph 4 mph 98% 0 in
03:59 35.8 °F 35.6 °F 29.8 in Calm   4 mph 98% 0 in
04:04 35.8 °F 35.6 °F 29.8 in West 3.8 mph 4 mph 98% 0 in
04:09 35.8 °F 35.6 °F 29.8 in Calm   4.9 mph 98% 0 in
04:14 35.8 °F 35.6 °F 29.9 in Calm   4.9 mph 98% 0 in
04:19 35.8 °F 35.6 °F 29.9 in West 1.6 mph 2.5 mph 98% 0 in
04:24 35.6 °F 35.6 °F 29.9 in Calm   2.9 mph 98% 0 in
04:29 35.6 °F 35.6 °F 29.9 in Calm   2.9 mph 98% 0 in
04:34 35.6 °F 35.6 °F 29.9 in Calm     98% 0 in
04:39 35.4 °F 35.6 °F 29.9 in West 3.8 mph 3.8 mph 98% 0 in
04:44 35.4 °F 35.6 °F 29.9 in West 3.4 mph 4.7 mph 98% 0 in
04:49 35.4 °F 35.6 °F 29.9 in Calm   4.7 mph 98% 0 in
04:54 35.6 °F 35.6 °F 29.9 in West 3.1 mph 4.3 mph 98% 0 in
04:59 35.6 °F 35.6 °F 29.9 in WNW 1.1 mph 4.3 mph 98% 0 in
05:04 35.6 °F 35.6 °F 29.9 in Calm   2.9 mph 98% 0 in
05:09 35.4 °F 35.6 °F 29.9 in Calm   2.7 mph 98% 0 in
05:14 35.4 °F 35.6 °F 29.9 in Calm   1.6 mph 98% 0 in
05:19 35.4 °F 35.6 °F 29.9 in Calm     98% 0 in
05:24 35.2 °F 35.6 °F 29.9 in Calm     98% 0 in
05:29 35.1 °F 35.6 °F 29.9 in Calm   1.6 mph 98% 0 in
05:34 34.9 °F 35.6 °F 29.9 in WNW 3.1 mph 3.1 mph 98% 0 in
05:39 34.9 °F 35.6 °F 29.9 in Calm   3.1 mph 98% 0 in
05:44 34.7 °F 35.6 °F 29.9 in Calm   3.1 mph 98% 0 in
05:49 34.5 °F 33.8 °F 29.9 in Calm   2.7 mph 98% 0 in
05:54 34.5 °F 33.8 °F 29.9 in Calm   2.7 mph 98% 0 in
05:59 34.5 °F 33.8 °F 29.9 in Calm   2 mph 98% 0 in
06:04 34.5 °F 33.8 °F 29.9 in Calm     98% 0 in
06:07 34.5 °F 33.8 °F 29.9 in Calm     98% 0 in
06:12 34.5 °F 33.8 °F 29.9 in Calm   2.5 mph 98% 0.01 in
06:17 34.3 °F 33.8 °F 29.9 in Calm   2.5 mph 98% 0.01 in
06:22 34.3 °F 33.8 °F 29.9 in Calm   1.6 mph 98% 0.01 in
06:27 34.2 °F 33.8 °F 29.9 in WSW 4 mph 4 mph 98% 0.01 in
06:32 34.3 °F 33.8 °F 29.9 in WSW 4 mph 4.9 mph 98% 0.01 in
06:37 34.3 °F 33.8 °F 29.9 in Calm   4.9 mph 98% 0.01 in
06:47 34.9 °F 35.6 °F 29.9 in Calm   4.3 mph 98% 0.01 in
06:52 34.9 °F 35.6 °F 29.9 in Calm   4 mph 98% 0.01 in
07:02 34.9 °F 35.6 °F 29.9 in Calm   3.1 mph 98% 0.01 in
07:08 34.9 °F 35.6 °F 29.9 in West 2.2 mph 3.8 mph 98% 0 in
07:13 34.9 °F 35.6 °F 29.9 in Calm   3.8 mph 98% 0 in
07:23 35.1 °F 35.6 °F 29.9 in Calm   2.5 mph 98% 0 in
07:28 35.1 °F 35.6 °F 29.9 in West 4 mph 4 mph 98% 0 in
07:33 35.1 °F 35.6 °F 29.9 in West 2.7 mph 4 mph 98% 0 in
07:43 35.1 °F 35.6 °F 29.9 in Calm   4 mph 98% 0 in
07:48 34.9 °F 35.6 °F 29.9 in West 3.6 mph 3.8 mph 98% 0 in
07:53 35.1 °F 35.6 °F 29.9 in West 2 mph 4 mph 98% 0 in
07:58 35.1 °F 35.6 °F 29.9 in Calm   4 mph 98% 0 in
08:08 34.5 °F 33.8 °F 30 in Calm   4 mph 98% 0 in
08:13 34.5 °F 33.8 °F 30 in Calm   4 mph 98% 0 in
08:23 34.5 °F 33.8 °F 30 in WSW 3.8 mph 4.3 mph 98% 0 in
08:28 34.5 °F 33.8 °F 30 in Calm   4.3 mph 98% 0 in
08:34 34.7 °F 35.6 °F 30 in Calm   4.3 mph 98% 0 in
08:44 34.9 °F 35.6 °F 29.9 in Calm     98% 0 in
08:49 34.9 °F 35.6 °F 29.9 in Calm   4.3 mph 98% 0 in
08:54 35.1 °F 35.6 °F 29.9 in WSW 3.8 mph 4.3 mph 98% 0 in
08:59 35.1 °F 35.6 °F 29.9 in West 4 mph 4.7 mph 98% 0 in
09:14 35.4 °F 35.6 °F 30 in WSW 3.6 mph 4.3 mph 98% 0 in
09:19 35.4 °F 35.6 °F 30 in Calm   4.3 mph 98% 0 in
09:24 35.4 °F 35.6 °F 30 in Calm   4.3 mph 98% 0 in
09:34 35.6 °F 35.6 °F 30 in Calm     98% 0 in
09:39 35.8 °F 35.6 °F 30 in Calm   4 mph 98% 0 in
09:44 35.8 °F 35.6 °F 30 in Calm   4 mph 98% 0 in
09:54 36 °F 35.6 °F 30 in Calm     98% 0 in
09:59 36.1 °F 37.4 °F 30 in Calm   4.3 mph 98% 0 in
10:04 36.3 °F 37.4 °F 30 in WSW 3.1 mph 4.3 mph 98% 0 in
10:10 36.3 °F 37.4 °F 30 in Calm   4.3 mph 98% 0 in
10:15 36.5 °F 37.4 °F 30 in Calm   4.3 mph 98% 0 in
10:20 36.7 °F 37.4 °F 30 in West 3.4 mph 4.9 mph 98% 0 in
10:25 36.7 °F 37.4 °F 30 in WSW 3.1 mph 5.8 mph 98% 0 in
10:30 36.9 °F 37.4 °F 30 in Calm   6 mph 98% 0 in
10:35 37 °F 37.4 °F 30 in Calm   6 mph 98% 0 in
10:40 37 °F 37.4 °F 30 in WSW 3.8 mph 5.8 mph 98% 0 in
10:45 37.4 °F 37.4 °F 30 in WSW 4.3 mph 5.8 mph 98% 0 in
10:50 37.4 °F 37.4 °F 30 in WSW 2.7 mph 6 mph 98% 0 in
10:55 37.4 °F 37.4 °F 30 in Calm   6.3 mph 98% 0 in
11:00 37.4 °F 37.4 °F 30 in WSW 6.3 mph 7.2 mph 98% 0 in
11:05 37.4 °F 37.4 °F 30 in West 5.8 mph 7.6 mph 98% 0 in
11:10 37.6 °F 37.4 °F 30 in WSW 4.3 mph 7.6 mph 98% 0 in
11:15 37.8 °F 37.4 °F 30 in West 4.7 mph 6.5 mph 98% 0 in
11:20 37.9 °F 37.4 °F 30 in SSW 4.3 mph 5.8 mph 98% 0 in
11:25 37.9 °F 37.4 °F 30 in WSW 2.5 mph 5.8 mph 98% 0 in
11:30 38.1 °F 37.4 °F 30 in Calm   5.8 mph 98% 0 in
11:35 38.1 °F 37.4 °F 30 in WSW 3.6 mph 5.4 mph 98% 0 in
11:40 38.5 °F 39.2 °F 30 in WSW 4.7 mph 5.4 mph 98% 0 in
11:45 38.5 °F 39.2 °F 30 in WSW 1.3 mph 5.8 mph 98% 0 in
11:50 38.5 °F 39.2 °F 30 in WSW 1.1 mph 5.8 mph 98% 0 in
11:55 38.5 °F 39.2 °F 30 in WSW 4.3 mph 6.5 mph 98% 0 in
12:00 38.7 °F 39.2 °F 30 in WSW 6.3 mph 6.5 mph 98% 0 in
12:05 38.7 °F 39.2 °F 30 in Calm   6.3 mph 98% 0 in
12:10 38.8 °F 39.2 °F 30 in Calm   6.3 mph 98% 0 in
12:15 38.8 °F 39.2 °F 30 in Calm   5.6 mph 98% 0 in
12:20 38.8 °F 39.2 °F 30 in Calm   5.6 mph 98% 0 in
12:25 39 °F 39.2 °F 30 in South 2 mph 4.5 mph 98% 0 in
12:30 39.2 °F 39.2 °F 30 in SW 4 mph 4 mph 98% 0 in
12:35 39.4 °F 39.2 °F 30 in WSW 1.6 mph 5.6 mph 98% 0 in
12:40 39.6 °F 39.2 °F 30 in SW 1.1 mph 5.6 mph 98% 0 in
12:45 39.7 °F 39.2 °F 30 in South 2.9 mph 4 mph 98% 0 in
12:50 39.7 °F 39.2 °F 30 in SSW 5.8 mph 6.5 mph 98% 0 in
12:55 39.9 °F 39.2 °F 30 in SSW 5.4 mph 6.5 mph 98% 0 in
13:00 39.9 °F 39.2 °F 30 in WSW 4.7 mph 6.5 mph 98% 0 in
13:05 40.1 °F 41 °F 30 in SSW 7.8 mph 7.8 mph 98% 0 in
13:11 40.1 °F 41 °F 30 in SSW 2.2 mph 8.1 mph 98% 0 in
13:16 40.1 °F 41 °F 30 in SSW 4.3 mph 8.1 mph 98% 0 in
13:21 40.1 °F 41 °F 30 in WSW 4.7 mph 9.6 mph 98% 0 in
13:26 40.3 °F 41 °F 30 in WSW 3.6 mph 9.6 mph 98% 0 in
13:31 40.5 °F 41 °F 30 in West 6.3 mph 6.3 mph 98% 0 in
13:36 40.3 °F 41 °F 30 in WSW 10.3 mph 11 mph 98% 0 in
13:41 39.9 °F 39.2 °F 30 in SW 6.5 mph 11 mph 98% 0 in
13:46 39.9 °F 39.2 °F 30 in WSW 8.1 mph 10.7 mph 98% 0 in
13:51 39.9 °F 39.2 °F 30 in SW 7.6 mph 8.5 mph 98% 0 in
13:56 39.9 °F 39.2 °F 30 in WSW 10.7 mph 10.7 mph 98% 0 in
14:01 39.7 °F 39.2 °F 30 in SW 8.5 mph 10.7 mph 97% 0 in
14:06 39.6 °F 39.2 °F 30 in WSW 7.4 mph 10.7 mph 96% 0 in
14:11 39.4 °F 37.4 °F 30 in WSW 7.4 mph 10.7 mph 94% 0 in
14:16 39.2 °F 37.4 °F 30 in SSW 5.8 mph 10.7 mph 94% 0 in
14:21 39 °F 37.4 °F 30 in WSW 9.4 mph 9.4 mph 94% 0 in
14:26 38.8 °F 37.4 °F 30 in SW 6.5 mph 9.4 mph 94% 0 in
14:31 38.7 °F 37.4 °F 30 in SSW 7.6 mph 10.7 mph 94% 0 in
14:37 38.5 °F 37.4 °F 30 in SW 6.5 mph 10.7 mph 94% 0 in
14:42 38.3 °F 37.4 °F 30 in SSW 6.3 mph 7.6 mph 95% 0 in
14:47 38.1 °F 37.4 °F 30 in SSW 7.2 mph 7.2 mph 95% 0 in
14:52 37.9 °F 37.4 °F 30 in SSW 7.8 mph 9.8 mph 95% 0.01 in
14:57 37.8 °F 37.4 °F 30 in SSW 5.4 mph 9.8 mph 96% 0.01 in
15:02 37.4 °F 37.4 °F 30 in SSW 6.3 mph 9.6 mph 96% 0.01 in
15:07 37.4 °F 37.4 °F 30 in SSW 6 mph 9.6 mph 96% 0.02 in
15:12 37.2 °F 37.4 °F 30 in SSW 2.9 mph 6 mph 97% 0.02 in
15:17 37 °F 37.4 °F 30 in South 5.4 mph 8.9 mph 98% 0.02 in
15:22 36.9 °F 37.4 °F 30 in South 4.9 mph 8.9 mph 98% 0.03 in
15:27 36.9 °F 37.4 °F 30 in WSW 6 mph 8.1 mph 98% 0.03 in
15:32 36.7 °F 37.4 °F 30 in SSE 4 mph 8.1 mph 98% 0.03 in
15:37 36.7 °F 37.4 °F 30 in South 6 mph 9.2 mph 98% 0.05 in
15:42 36.7 °F 37.4 °F 30 in SSW 4 mph 9.2 mph 98% 0.05 in
15:47 36.7 °F 37.4 °F 30 in SSE 2.7 mph 10.7 mph 98% 0.05 in
15:52 36.5 °F 37.4 °F 30 in SSE 4.9 mph 11 mph 98% 0.03 in
15:58 36.5 °F 37.4 °F 30 in SSE 6 mph 11 mph 98% 0.05 in
16:03 36.5 °F 37.4 °F 29.9 in SSE 6.5 mph 10.3 mph 98% 0.05 in
16:08 36.3 °F 37.4 °F 29.9 in South 4 mph 10.3 mph 98% 0.04 in
16:13 36.3 °F 37.4 °F 29.9 in SSE 13 mph 13 mph 98% 0.04 in
16:18 36.3 °F 37.4 °F 29.9 in SE 7.6 mph 13 mph 98% 0.04 in
16:23 36.1 °F 37.4 °F 29.9 in SE 6 mph 13 mph 98% 0.04 in
16:28 36.3 °F 37.4 °F 29.9 in SSE 5.8 mph 10.3 mph 98% 0.04 in
16:33 36.1 °F 37.4 °F 29.9 in SSE 8.1 mph 8.1 mph 98% 0.04 in
16:38 36.1 °F 37.4 °F 29.9 in Calm   10.3 mph 98% 0.03 in
16:43 36.1 °F 37.4 °F 29.9 in SSE 7.6 mph 10.3 mph 98% 0.04 in
16:48 36.1 °F 37.4 °F 29.9 in SSE 5.8 mph 8.7 mph 98% 0.04 in
16:53 36.1 °F 37.4 °F 29.9 in SE 7.6 mph 9.6 mph 98% 0.04 in
16:58 36.1 °F 37.4 °F 29.9 in SSE 4.3 mph 9.8 mph 98% 0.03 in
17:03 36.1 °F 37.4 °F 29.9 in SSE 5.4 mph 15.4 mph 98% 0.03 in
17:08 36.1 °F 37.4 °F 29.9 in SE 8.5 mph 15.4 mph 98% 0.03 in
17:13 36 °F 35.6 °F 29.9 in SE 8.5 mph 13 mph 98% 0.03 in
17:18 36 °F 35.6 °F 29.9 in SE 8.5 mph 8.5 mph 98% 0.05 in
17:23 36 °F 35.6 °F 29.9 in SE 8.5 mph 8.5 mph 98% 0.03 in
17:28 35.8 °F 35.6 °F 29.9 in SE 8.5 mph 8.5 mph 98% 0.03 in
17:34 35.8 °F 35.6 °F 29.9 in SE 8.5 mph 8.5 mph 98% 0.03 in
17:39 35.8 °F 35.6 °F 29.9 in SE 8.5 mph 8.5 mph 98% 0.05 in
17:44 36 °F 35.6 °F 29.9 in SE 8.5 mph 8.5 mph 98% 0.03 in
17:49 36 °F 35.6 °F 29.9 in SE 8.5 mph 8.5 mph 98% 0.03 in
17:54 36 °F 35.6 °F 29.9 in SE 8.5 mph 8.5 mph 98% 0.03 in
17:59 36.1 °F 37.4 °F 29.9 in SE 8.5 mph 8.5 mph 98% 0.02 in
18:04 36.1 °F 37.4 °F 29.9 in SE 8.5 mph 8.5 mph 98% 0.02 in
18:09 36.1 °F 37.4 °F 29.9 in SE 8.5 mph 8.5 mph 98% 0.02 in
18:14 36.1 °F 37.4 °F 29.9 in SE 8.5 mph 8.5 mph 98% 0.01 in
18:19 36.1 °F 37.4 °F 29.9 in SE 8.5 mph 8.5 mph 98% 0.02 in
18:24 36.1 °F 37.4 °F 29.9 in SSE 8.7 mph 8.7 mph 98% 0.02 in
18:29 36.1 °F 37.4 °F 29.9 in South 7.6 mph 9.4 mph 98% 0.02 in
18:34 36.3 °F 37.4 °F 29.9 in South 7.6 mph 9.4 mph 98% 0.02 in
18:39 36.3 °F 37.4 °F 29.9 in South 7.6 mph 7.6 mph 98% 0.03 in
18:44 36.3 °F 37.4 °F 29.9 in South 7.6 mph 7.6 mph 98% 0.03 in
18:49 36.3 °F 37.4 °F 29.9 in South 7.6 mph 7.6 mph 98% 0.03 in
18:54 36.5 °F 37.4 °F 29.9 in South 7.6 mph 7.6 mph 98% 0.03 in
18:59 36.5 °F 37.4 °F 29.9 in South 7.6 mph 7.6 mph 98% 0.03 in
19:04 36.7 °F 37.4 °F 29.9 in SSE 10.3 mph 10.3 mph 98% 0.04 in
19:09 36.7 °F 37.4 °F 29.9 in SSE 10.3 mph 10.3 mph 98% 0.04 in
19:14 36.7 °F 37.4 °F 29.9 in SE 8.5 mph 10.3 mph 98% 0.04 in
19:19 36.7 °F 37.4 °F 29.9 in SE 3.8 mph 10.3 mph 98% 0.03 in
19:24 36.7 °F 37.4 °F 29.9 in South 8.1 mph 10.3 mph 98% 0.03 in
19:29 36.7 °F 37.4 °F 29.8 in SSE 10.1 mph 17.4 mph 98% 0.04 in
19:34 36.7 °F 37.4 °F 29.8 in SSE 12.5 mph 17.4 mph 98% 0.04 in
19:39 36.9 °F 37.4 °F 29.8 in SSE 8.5 mph 17 mph 98% 0.03 in
19:44 36.9 °F 37.4 °F 29.8 in SSW 10.7 mph 12.5 mph 98% 0.05 in
19:49 36.9 °F 37.4 °F 29.8 in SSE 4.9 mph 14.3 mph 98% 0.05 in
19:54 36.9 °F 37.4 °F 29.8 in SSE 8.5 mph 14.3 mph 98% 0.06 in
19:59 36.9 °F 37.4 °F 29.8 in SSE 7.4 mph 9.8 mph 98% 0.07 in
20:04 36.9 °F 37.4 °F 29.8 in SSE 7.4 mph 8.5 mph 98% 0.07 in
20:09 36.9 °F 37.4 °F 29.8 in SSE 3.6 mph 7.4 mph 98% 0.07 in
20:14 36.9 °F 37.4 °F 29.8 in SSE 3.6 mph 7.4 mph 98% 0.09 in
20:19 37 °F 37.4 °F 29.8 in SSE 3.6 mph 3.6 mph 98% 0.1 in
20:24 37 °F 37.4 °F 29.8 in SSE 3.6 mph 3.6 mph 98% 0.11 in
20:30 37 °F 37.4 °F 29.8 in SSE 3.6 mph 3.6 mph 98% 0.11 in
20:35 37.2 °F 37.4 °F 29.8 in SSE 3.6 mph 3.6 mph 98% 0.12 in
20:40 37.2 °F 37.4 °F 29.8 in SSE 3.6 mph 3.6 mph 98% 0.13 in
20:45 37.2 °F 37.4 °F 29.8 in SSE 3.6 mph 3.6 mph 98% 0.12 in
20:50 37.4 °F 37.4 °F 29.8 in SSE 3.6 mph 3.6 mph 98% 0.15 in
20:55 37.4 °F 37.4 °F 29.8 in SSE 3.6 mph 3.6 mph 98% 0.15 in
21:00 37.4 °F 37.4 °F 29.8 in SSE 3.6 mph 3.6 mph 98% 0.16 in
21:05 37.4 °F 37.4 °F 29.8 in SSE 3.6 mph 3.6 mph 98% 0.16 in
21:10 37.4 °F 37.4 °F 29.8 in South 4.9 mph 4.9 mph 98% 0.17 in
21:15 37.4 °F 37.4 °F 29.8 in South 4.9 mph 4.9 mph 98% 0.17 in
21:20 37.6 °F 37.4 °F 29.8 in South 4.9 mph 4.9 mph 98% 0.16 in
21:25 37.6 °F 37.4 °F 29.8 in South 4.9 mph 4.9 mph 98% 0.17 in
21:35 37.6 °F 37.4 °F 29.8 in South 4.9 mph 4.9 mph 98% 0.17 in
21:40 37.6 °F 37.4 °F 29.8 in South 4.9 mph 4.9 mph 98% 0.17 in
21:45 37.6 °F 37.4 °F 29.7 in South 4.9 mph 4.9 mph 98% 0.17 in
21:50 37.8 °F 37.4 °F 29.7 in South 4.9 mph 4.9 mph 98% 0.17 in
21:55 37.8 °F 37.4 °F 29.7 in South 4.9 mph 4.9 mph 98% 0.17 in
22:01 37.8 °F 37.4 °F 29.7 in South 4.9 mph 4.9 mph 98% 0.16 in
22:06 37.9 °F 37.4 °F 29.7 in South 4.9 mph 4.9 mph 98% 0.14 in
22:16 37.9 °F 37.4 °F 29.7 in South 4.9 mph 4.9 mph 98% 0.11 in
22:21 38.1 °F 37.4 °F 29.7 in South 4.9 mph 4.9 mph 98% 0.1 in
22:26 38.1 °F 37.4 °F 29.7 in South 4.9 mph 4.9 mph 98% 0.1 in
22:36 38.3 °F 39.2 °F 29.7 in South 4.9 mph 4.9 mph 98% 0.06 in
22:41 38.5 °F 39.2 °F 29.7 in South 4.9 mph 4.9 mph 98% 0.05 in
22:51 38.5 °F 39.2 °F 29.7 in South 4.9 mph 4.9 mph 98% 0.04 in
22:56 38.7 °F 39.2 °F 29.7 in South 4.9 mph 4.9 mph 98% 0.04 in
23:11 38.8 °F 39.2 °F 29.7 in SSW 1.3 mph 1.3 mph 98% 0.03 in
23:16 39 °F 39.2 °F 29.7 in SSW 1.3 mph 1.3 mph 98% 0.03 in
23:21 39.4 °F 39.2 °F 29.7 in SSW 1.3 mph 1.3 mph 98% 0.03 in
23:31 39.7 °F 39.2 °F 29.7 in SSW 1.3 mph 1.3 mph 98% 0.02 in
23:36 39.7 °F 39.2 °F 29.7 in SSW 1.3 mph 1.3 mph 98% 0.02 in
23:46 40.1 °F 41 °F 29.7 in SSW 1.3 mph 1.3 mph 98% 0.02 in
23:51 40.3 °F 41 °F 29.7 in SSW 1.3 mph 1.3 mph 98% 0.01 in
23:56 40.5 °F 41 °F 29.7 in SSW 1.3 mph 1.3 mph 98% 0.02 in
Données Historique de Météo Turbie

Mise a jour : 26/05/2018 06:20:15
Généré par Cumulus 1.9.4 (1099)